2019-089G (44858 NORAD) Tracking and Keplerian Element Data

This shows tracking and keplerian element data for the satellite.

Feedback or suggestion? Click here.




ElementValue
Catalog44858
Name2019-089G
Epoch Orbit1704
Epoch Day94.16525701
Epoch Year2020
RAAN184.3002
Inclination36.9705
Eccentricity0.0004037
Argument of Perigee119.34
Mean Anonmoly240.7756
Mean Motion14.98122011
Decay Rate1.116E-05
L11 44858U 19089G 20094.16525701 .00001116 00000-0 98960-4 0 9993
L22 44858 36.9705 184.3002 0004037 119.3400 240.7756 14.98122011 17043

Live tracking and technical data element details for 2019-089G (NORAD 44858). 2019-089G can be tracked NOW for your location showing map with azimuth and elevation plus other details from your city location.

Track the satellite on the map from your city or location and see movement details for azimuth, elevation, latitude, longitude, range, height, and movement on the map or in text.







IsCatalogInMostPopularTable: catalog: 44858, numindb: 42
Update: records affected: 1



GetName: 44858 2019-089G

Hit Count: updated at: Fri, 10 Apr 2020 17:39:36 GMT